Regional Weather Roundup
Issued by NWS

Home | Current Version | Previous Version | Text Only | Print | Product List | Glossary On
Versions: 1 2 3 4 5 6 7 8 9 10 11 12 13 14 15 16 17 18 19 20 21 22 23 24 25 26 27 28 29 30 31 32 33 34 35 36 37 38 39 40 41 42 43 44 45 46 47 48 49 50
000
ASUS42 KKEY 040410
RWRKEY

FLORIDA REGIONAL WEATHER ROUNDUP FOR THE FLORIDA KEYS
NATIONAL WEATHER SERVICE KEY WEST FLORIDA
1200 AM EDT WED MAY 04 2016

...SOUTH FLORIDA AND THE KEYS...

CITY           SKY/WX    TMP DP  RH WIND       PRES   REMARKS
FORT MYERS     PTCLDY    78  74  87 CALM      29.91R
SW REGIONAL AP PTCLDY    77  74  90 CALM      29.91R
NAPLES         PTCLDY    79  76  90 S3        29.91S
MIAMI          CLEAR     77  74  90 NE3       29.93S
WEST KENDALL   CLEAR     76  74  93 SW3       29.92F
HOMESTEAD      CLEAR     76  74  94 SW5       29.93S
MARATHON       PTCLDY    80  75  84 CALM      29.94S
BOCA CHICA NAS CLEAR     80  75  84 CALM      29.94F
KEY WEST INTL  CLEAR     78  77  96 CALM      29.94F

...INTERNATIONAL WEATHER...

CITY           SKY/WX    TMP DP  RH WIND       PRES   REMARKS
NASSAU BAHAMAS PTCLDY    81  73  78 SE3       29.98S
CANCUN MEXICO  PTCLDY    82  79  89 E10       29.91R HX  93
COZUMEL MEXICO PTCLDY    77  77 100 SE12      29.91R

ADJACENT COASTAL WATERS...

STATION/POSITION TIME  SKY/WX   TEMP    WIND        PRES    WAVE
                                AIR SEA DIR/SP/G            HT/PER
                 (UTC)          (F)     (DEG/KT/KT) (MB)    (FT/S)
PULASKI SHOAL LI 0400            79        CALM     1013.6F
SAND KEY         0350            80      50/  3/  4 1014.3S
SOMBRERO KEY     NOT AVBL
LONG KEY         0400            81 84  310/  3/  3 1014.3R
MOLASSES REEF    0300            81     330/  7       N/A
FOWEY ROCKS      NOT AVBL

$$



USA.gov is the U.S. government's official web portal to all federal, state and local government web resources and services.